This is the latest recevied weather packets stored in our database for station/object IZ1UQG-N2. If no packets are shown the sender has not sent any weather packets the latest 1 day(s).
| Time | Temp. | Humidity | Pressure | Rain* | Wind** | Luminosity | Snow |
|---|---|---|---|---|---|---|---|
| 1777976030 | 12.78° C | 87% | 1012.5 hPa | 0 mm | 0 m/s | 67 W/m² | - |
| 1777975970 | 12.78° C | 87% | 1012.5 hPa | 0.25 mm | 0 m/s | 65 W/m² | - |
| 1777975927 | 12.78° C | 87% | 1012.5 hPa | 0.25 mm | 0 m/s | 65 W/m² | - |
| 1777975909 | 12.78° C | 88% | 1012.5 hPa | 0.25 mm | 0.45 m/s, 335° | 69 W/m² | - |
| 1777975849 | 12.78° C | 88% | 1012.5 hPa | 0.25 mm | 0.45 m/s, 339° | 74 W/m² | - |
| 1777975789 | 12.78° C | 88% | 1012.5 hPa | 0.25 mm | 0.45 m/s, 340° | 81 W/m² | - |
| 1777975749 | 12.78° C | 88% | 1012.5 hPa | 0.25 mm | 0.45 m/s, 340° | 81 W/m² | - |
| 1777975730 | 12.78° C | 88% | 1012.5 hPa | 0.25 mm | 0.45 m/s, 344° | 88 W/m² | - |
| 1777975670 | 12.78° C | 88% | 1012.6 hPa | 0.25 mm | 0.45 m/s, 349° | 104 W/m² | - |
| 1777975610 | 12.22° C | 87% | 1012.5 hPa | 0.25 mm | 0.45 m/s, 352° | 111 W/m² | - |
| 1777975568 | 12.22° C | 87% | 1012.5 hPa | 0.25 mm | 0.45 m/s, 352° | 111 W/m² | - |
| 1777975550 | 12.78° C | 87% | 1012.5 hPa | 0.25 mm | 0.89 m/s, 354° | 118 W/m² | - |
| 1777975490 | 12.78° C | 88% | 1012.6 hPa | 0.25 mm | 0.89 m/s, 357° | 123 W/m² | - |
| 1777975431 | 12.78° C | 88% | 1012.6 hPa | 0.25 mm | 0.89 m/s, 359° | 127 W/m² | - |
| 1777975388 | 12.78° C | 88% | 1012.6 hPa | 0.25 mm | 0.89 m/s, 359° | 127 W/m² | - |
| 1777975370 | 12.78° C | 88% | 1012.5 hPa | 0.25 mm | 0.89 m/s, 1° | 128 W/m² | - |
| 1777975310 | 12.78° C | 88% | 1012.5 hPa | 0.25 mm | 0.89 m/s, 4° | 130 W/m² | - |
| 1777975250 | 12.78° C | 88% | 1012.5 hPa | 0.25 mm | 0.45 m/s, 5° | 132 W/m² | - |
| 1777975208 | 12.78° C | 88% | 1012.5 hPa | 0.25 mm | 0.45 m/s, 5° | 132 W/m² | - |
| 1777975190 | 12.78° C | 88% | 1012.6 hPa | 0.25 mm | 0.45 m/s, 5° | 135 W/m² | - |
| 1777975130 | 12.22° C | 88% | 1012.6 hPa | 0.25 mm | 0.45 m/s, 4° | 139 W/m² | - |
| 1777975069 | 12.78° C | 88% | 1012.5 hPa | 0.25 mm | 0.45 m/s, 4° | 141 W/m² | - |
| 1777975027 | 12.78° C | 88% | 1012.5 hPa | 0.25 mm | 0.45 m/s, 4° | 141 W/m² | - |
| 1777975009 | 12.78° C | 88% | 1012.6 hPa | 0.25 mm | 0.45 m/s, 3° | 142 W/m² | - |
| 1777974949 | 12.78° C | 88% | 1012.6 hPa | 0.25 mm | 0.45 m/s, 4° | 142 W/m² | - |
* Rain latest hour (hover to see other rain measurements)
** Current wind speed in m/s (hover to see current wind gust speed)